TimeEST,TemperatureF,Dew PointF,Humidity,Sea Level PressureIn,VisibilityMPH,Wind Direction,Wind SpeedMPH,Gust SpeedMPH,PrecipitationIn,Events,Conditions,WindDirDegrees,DateUTC
12:53 AM,64.0,54.0,70,29.99,10.0,North,13.8,-,0.00,,Overcast,350,2013-03-02 05:53:00
1:53 AM,64.0,53.1,67,29.98,10.0,North,11.5,-,N/A,,Overcast,360,2013-03-02 06:53:00
2:53 AM,64.0,54.0,70,29.98,10.0,North,15.0,-,N/A,,Overcast,350,2013-03-02 07:53:00
3:53 AM,64.0,54.0,70,29.98,10.0,North,16.1,24.2,N/A,,Overcast,360,2013-03-02 08:53:00
4:53 AM,63.0,52.0,67,29.99,10.0,North,16.1,25.3,N/A,,Overcast,350,2013-03-02 09:53:00
5:53 AM,63.0,51.1,65,29.99,10.0,North,18.4,26.5,N/A,,Overcast,350,2013-03-02 10:53:00
5:57 AM,62.6,51.8,68,30.00,10.0,NNW,17.3,25.3,N/A,,Overcast,340,2013-03-02 10:57:00
6:53 AM,64.0,50.0,60,30.00,10.0,NNW,21.9,27.6,N/A,,Overcast,340,2013-03-02 11:53:00
7:53 AM,64.0,39.0,40,30.02,10.0,NNW,17.3,28.8,N/A,,Overcast,340,2013-03-02 12:53:00
8:53 AM,64.0,50.0,60,30.03,10.0,NNW,16.1,-,N/A,,Overcast,340,2013-03-02 13:53:00
9:53 AM,64.9,48.9,56,30.04,10.0,NNW,12.7,-,N/A,,Overcast,340,2013-03-02 14:53:00
10:53 AM,64.0,45.0,50,30.04,10.0,North,11.5,-,N/A,,Overcast,10,2013-03-02 15:53:00
11:53 AM,64.0,52.0,65,30.04,10.0,NNE,9.2,-,N/A,,Overcast,20,2013-03-02 16:53:00
12:53 PM,66.9,52.0,59,30.03,10.0,North,10.4,-,N/A,,Overcast,350,2013-03-02 17:53:00
1:53 PM,68.0,51.1,55,30.01,10.0,NNW,8.1,-,N/A,,Mostly Cloudy,340,2013-03-02 18:53:00
2:53 PM,69.1,51.1,53,29.99,10.0,NW,11.5,-,N/A,,Mostly Cloudy,320,2013-03-02 19:53:00
3:53 PM,64.9,50.0,58,29.99,10.0,NNW,24.2,31.1,N/A,,Mostly Cloudy,330,2013-03-02 20:53:00
4:53 PM,64.9,48.0,54,30.01,10.0,NNW,17.3,24.2,N/A,,Mostly Cloudy,340,2013-03-02 21:53:00
5:53 PM,62.1,48.9,62,30.01,10.0,North,13.8,-,N/A,,Mostly Cloudy,360,2013-03-02 22:53:00
6:53 PM,62.1,46.0,56,30.02,10.0,North,13.8,-,N/A,,Mostly Cloudy,350,2013-03-02 23:53:00
7:53 PM,61.0,48.0,62,30.04,10.0,North,12.7,-,N/A,,Scattered Clouds,10,2013-03-03 00:53:00
8:45 PM,60.8,48.2,63,30.07,10.0,NNW,13.8,-,0.00,Rain,Light Rain,330,2013-03-03 01:45:00
8:53 PM,61.0,48.0,62,30.07,10.0,NNW,12.7,-,0.00,,Mostly Cloudy,340,2013-03-03 01:53:00
9:53 PM,60.1,48.0,64,30.07,10.0,NW,4.6,-,N/A,,Overcast,310,2013-03-03 02:53:00
10:53 PM,59.0,48.9,69,30.05,10.0,Calm,Calm,-,N/A,,Partly Cloudy,0,2013-03-03 03:53:00
11:53 PM,57.9,46.9,67,30.04,10.0,Calm,Calm,-,N/A,,Scattered Clouds,0,2013-03-03 04:53:00